This demonstration page uses our WeatherBlox Daily Observations layout. Learn more.

39.01783, -85.05884

Hourly Observations for August 13, 2019

Temp ( °F °C ) Dew Point ( °F °C ) Humidity (%) Winds ( mph kmh ) Pressure ( in mb ) Visibility ( mi km ) Precip ( " mm )
12:52 am 00:52 Mostly Cloudy 76 24.4 69 20.6 79 79 S 6 9 29.8 1009 10 16.09344 0 0
12:57 am 00:57 Cloudy with Thunderstorms 76 24.4 69 20.6 79 79 S 7 11 29.83 1010 10 16.09344 0 0
1:52 am 01:52 Cloudy with Thunderstorms 74 23.3 71 21.7 91 91 Calm 29.8 1009 9 14.484096 0.07 1.778
2:24 am 02:24 Cloudy 75 23.9 69 20.6 82 82 S 7 11 29.77 1008 10 16.09344 0 0
2:52 am 02:52 Mostly Cloudy 74 23.3 69 20.6 85 85 S 9 15 29.74 1007 10 16.09344 0 0
3:52 am 03:52 Cloudy 75 23.9 69 20.6 82 82 ESE 8 13 29.74 1007 10 16.09344 0.001 0.001
4:17 am 04:17 Mostly Cloudy 74 23.3 69 20.6 85 85 ESE 8 13 29.74 1007 10 16.09344 0 0
4:52 am 04:52 Cloudy 74 23.3 69 20.6 85 85 SE 9 15 29.71 1006 10 16.09344 0.001 0.001
5:10 am 05:10 Cloudy 74 23.3 69 20.6 85 85 SSE 6 9 29.74 1007 10 16.09344 0 0
5:52 am 05:52 Mostly Cloudy 73 22.8 69 20.6 87 87 ESE 3 6 29.74 1007 10 16.09344 0 0
6:52 am 06:52 Mostly Cloudy 72 22.2 69 20.6 91 91 SE 6 9 29.77 1008 9 14.484096 0 0
7:52 am 07:52 Mostly Cloudy 73 22.8 70 21.1 90 90 S 6 9 29.8 1009 8 12.874752 0 0
8:52 am 08:52 Cloudy 76 24.4 72 22.2 88 88 SSW 7 11 29.8 1009 9 14.484096 0 0
9:24 am 09:24 Cloudy 76 24.4 72 22.2 88 88 SSW 13 20 29.83 1010 10 16.09344 0 0
9:52 am 09:52 Cloudy 76 24.4 71 21.7 85 85 SSW 9 15 29.83 1010 10 16.09344 0 0
10:31 am 10:31 Cloudy 76 24.4 71 21.7 85 85 SSW 8 13 29.83 1010 10 16.09344 0 0
10:52 am 10:52 Cloudy 76 24.4 70 21.1 82 82 SW 12 19 29.83 1010 10 16.09344 0 0
11:52 am 11:52 Cloudy 77 25 69 20.6 77 77 WSW 10 17 29.83 1010 10 16.09344 0 0
12:52 pm 12:52 Mostly Cloudy 80 26.7 68 20 67 67 W 13 20 29.8 1009 10 16.09344 0 0
1:52 pm 13:52 Mostly Cloudy 84 28.9 70 21.1 63 63 WNW 16 26 29.77 1008 10 16.09344 0 0
2:52 pm 14:52 Mostly Cloudy 85 29.4 70 21.1 61 61 NNW 10 17 29.74 1007 10 16.09344 0 0
3:52 pm 15:52 Mostly Cloudy 87 30.6 71 21.7 59 59 W 13 20 29.77 1008 10 16.09344 0 0
4:52 pm 16:52 Mostly Cloudy 86 30 71 21.7 61 61 NW 12 19 29.77 1008 10 16.09344 0 0
5:52 pm 17:52 Mostly Cloudy 85 29.4 70 21.1 61 61 NW 14 22 29.77 1008 10 16.09344 0 0
6:52 pm 18:52 Mostly Sunny 86 30 69 20.6 57 57 WNW 12 19 29.77 1008 10 16.09344 0 0
7:52 pm 19:52 Mostly Sunny 84 28.9 69 20.6 61 61 W 9 15 29.77 1008 10 16.09344 0 0
8:52 pm 20:52 Mostly Cloudy 82 27.8 69 20.6 65 65 NW 12 19 29.8 1009 10 16.09344 0 0
9:52 pm 21:52 Mostly Cloudy 80 26.7 69 20.6 69 69 NNW 7 11 29.8 1009 10 16.09344 0 0
10:52 pm 22:52 Mostly Clear 77 25 70 21.1 79 79 NNW 5 7 29.83 1010 10 16.09344 0 0
11:52 pm 23:52 Partly Cloudy 75 23.9 69 20.6 82 82 W 5 7 29.83 1010 10 16.09344 0 0

Powered by AerisWeather